Погода в Парауле

Россия / Республика Дагестан     42°44′25″N   47°21′10″E
темп.,
°C
ветер,
м/с
пор.,
м/с
влажн.,
%
обл.,
%
осадки,
мм/ч
давл.,
гПа
погр.,
м
26 октября, вт
вт2600:00+2ссз2495100 1.1 1031367
03:00+2ссз1295100 1.6 1031332
06:00+2ссз2397100 0.8 1032299
09:00+3с118088 1.0 1032555
12:00+4с227998 0.1 1032613
15:00+4с337498 0.1 1032694
18:00+3с117790 0.0 1033492
21:00+3ссв117853 0.0 1033170
27 октября, ср
ср2700:00+1ююв11835 0.0 103311
03:000ю228018 0.0 103218
06:000ю22725 0.0 103230
09:00+5юв23571 0.0 1031399
12:00+8в43501 0.0 1027679
15:00+9в44560 0.0 1026560
18:00+4юв23800 0.0 102662
21:00+4ююв22720 0.0 102532
28 октября, чт
чт2800:00+4ю22660 0.0 102320
03:00+4ююз11630 0.0 102311
06:00+4юз22610 0.0 102410
09:00+9сз11480 0.0 1024220
12:00+11с32440 0.0 1022604
15:00+11с22510 0.0 1022576
18:00+7з11640 0.0 102311
21:00+6зюз1164100 0.0 102310
29 октября, пт
пт2900:00+6юз116294 0.0 102310
03:00+6зюз1161100 0.0 102310
06:00+5юз1160100 0.0 102410
09:00+9с114745 0.0 1024295
12:00+11ссв214269 0.0 1023827
15:00+11св224715 0.0 1023980
18:00+7в126840 0.0 102614
21:00+6ю117317 0.0 102610
30 октября, сб
сб3000:00+5з118037 0.0 102712
03:00+5зюз118366 0.3 102840
06:00+5с3495100 1.5 1030403
09:00+4с2497100 3.4 1033556
12:00+4ссз2491100 0.1 1033563
15:00+5с3376100 0.3 1034651
18:00+5ссв118067 0.1 1036302
21:00+3всв118410 0.1 103637